IRIDIUM 54 [+] (25171 NORAD) Tracking and Keplerian Element Data

This shows tracking and keplerian element data for the satellite.

Feedback or suggestion? Click here.




ElementValue
Catalog25171
NameIRIDIUM 54 [+]
Epoch Orbit8653
Epoch Day323.54982126
Epoch Year2018
RAAN132.9533
Inclination86.4199
Eccentricity0.0001731
Argument of Perigee88.0165
Mean Anonmoly272.1232
Mean Motion14.38608019
Decay Rate-6.5E-07
L11 25171U 98010C 18323.54982126 -.00000065 00000-0 -27770-4 0 9998
L22 25171 86.4199 132.9533 0001731 88.0165 272.1232 14.38608019 86532

Live tracking and technical data element details for IRIDIUM 54 [+] (NORAD 25171). IRIDIUM 54 [+] can be tracked NOW for your location showing map with azimuth and elevation plus other details from your city location.

Track the satellite on the map from your city or location and see movement details for azimuth, elevation, latitude, longitude, range, height, and movement on the map or in text.







IsCatalogInMostPopularTable: catalog: 25171, numindb: 51
Update: records affected: 1



GetName: 25171 IRIDIUM 54 [+]

Hit Count: updated at: Wed, 21 Nov 2018 05:27:21 GMT